sat.trackr.live / text

‹ back to catalog

WILDBLUE-1

NORAD 29643 · 2006-054A

PAYLOAD ACTIVE UNKNOWN

§ Identity

Operator
Country
US
Launch date
2006-12-08
Launch site
FRGUI
Launch vehicle
Mass (kg)
RCS (m²)
262.62

Purposes: comms

External: N2YO · Heavens-Above · Gunter

§ Orbital elements

Epoch: 2026-05-25T03:12:55.852128Z

Period
1,436.09 min
Inclination
2.7460°
Eccentricity
0.0001569
Mean motion
1.00272296 rev/d
Perigee alt
35,779.8 km
Apogee alt
35,793.1 km
Semi-major
42,164.6 km
B*
0.0000e+0
RAAN
80.7625°
Arg perigee
339.1782°
Mean anomaly
119.8122°
Rev number
5,356

§ Raw data

WILDBLUE-11 29643U 06054A   26145.13397977 -.00000051  00000+0  00000+0 0  99982 29643   2.7460  80.7625 0001569 339.1782 119.8122  1.00272296 53569

JSON: /api/v1/satellites/29643 · /tle

For live sub-satellite position, see the globe view (requires WebGL).

§ Visibility from observer

Set your observer location to see the next 7 days of passes ≥ 10°. The values pass through the URL so the page stays shareable.

No JS? Fill the form by hand. The geolocation button needs JavaScript.